Location: Carson
(33.8314°N, 118.2820°W)
Time: 13:21:51
(UTC+00:00)

PAYLOAD B - Pass Details

Date: 23 November 2020
Orbit: 849 x 871 km, 99.1° (Epoch: 21 January)

Event Time Altitude Azimuth Distance (km) Brightness Sun altitude
Rises 14:03:13 0° 11° (N) 3,430 7.3 -6.6°
Reaches altitude 10° 14:05:36 10° 10° (N) 2,488 6.5 -6.2°
Maximum altitude 14:11:06 76° 286° (WNW) 879 4.2 -5.1°
Drops below altitude 10° 14:16:33 10° 201° (SSW) 2,465 6.7 -4.0°
Sets 14:18:54 0° 200° (SSW) 3,397 7.4 -3.6°
